Location: Roswell
(33.3943°N, 104.5230°W)
Time: 13:22:51
(UTC+00:00)

Vanguard 2 Rocket - Pass Details

Date: 13 November 2024
Orbit: 554 x 3296 km, 32.9° (Epoch: 30 November)

Event Time Altitude Azimuth Distance (km) Brightness Sun altitude
Rises 11:13:49 0° 197° (SSW) 4,715 10.4 -28.1°
Reaches altitude 10° 11:17:14 10° 185° (S) 4,113 10.2 -27.4°
Maximum altitude 11:26:31 27° 133° (SE) 3,814 10.5 -25.4°
Drops below altitude 10° 11:39:32 10° 84° (E) 5,914 12.1 -22.7°
Sets 11:45:44 0° 75° (ENE) 7,171 12.6 -21.5°
